| time (UTC) | temp C | wind direction | speed KPH | gust KPH | rain 1hr cm | rain 24hr cm | rain mn cm | humidity % | barometer mb |
| 20260902014525 | 15 | 92 | 0.0 | 0.0 | 0.00 | 2.24 | 0.00 | 91 | 1018.9 |
| 20260902013008 | 15 | 92 | 0.0 | 3.2 | 0.00 | 2.24 | 0.00 | 91 | 1018.9 |
| 20260902011506 | 15 | 91 | 0.0 | 0.0 | 0.00 | 2.24 | 0.00 | 91 | 1018.7 |
| 20260902010003 | 15 | 91 | 0.0 | 0.0 | 0.00 | 2.24 | 0.00 | 91 | 1018.5 |
| 20260902004505 | 15 | 91 | 0.0 | 0.0 | 0.00 | 2.24 | 0.00 | 91 | 1018.6 |
| 20260902003003 | 15 | 91 | 0.0 | 0.0 | 0.00 | 2.24 | 0.00 | 91 | 1018.4 |
| 20260902001600 | 15 | 91 | 0.0 | 0.0 | 0.00 | 2.24 | 0.00 | 91 | 1018.3 |
| 20260902000053 | 15 | 91 | 0.0 | 0.0 | 0.00 | 2.24 | 0.00 | 91 | 1018.2 |
| 20260901234558 | 15 | 91 | 0.0 | 0.0 | 0.00 | 2.24 | 0.00 | 91 | 1018.4 |
| 20260901233047 | 15 | 91 | 0.0 | 0.0 | 0.00 | 2.24 | 0.00 | 91 | 1018.2 |
| 20260901231623 | 15 | 91 | 0.0 | 0.0 | 0.00 | 2.24 | 0.00 | 91 | 1018.1 |
| 20260901230037 | 15 | 91 | 0.0 | 0.0 | 0.00 | 2.24 | 0.00 | 91 | 1018.1 |
| 20260901224521 | 15 | 90 | 0.0 | 0.0 | 0.00 | 2.24 | 0.00 | 91 | 1018.0 |
| 20260901223015 | 15 | 91 | 0.0 | 9.7 | 0.00 | 2.24 | 0.00 | 91 | 1017.9 |
| 20260901221514 | 15 | 89 | 0.0 | 4.8 | 0.00 | 2.24 | 2.24 | 91 | 1018.1 |
| 20260901220011 | 16 | 88 | 0.0 | 4.8 | 0.00 | 2.24 | 2.24 | 91 | 1018.0 |
| 20260901214510 | 16 | 97 | 0.0 | 3.2 | 0.05 | 2.24 | 2.24 | 91 | 1017.8 |
| 20260901213027 | 16 | 98 | 0.0 | 0.0 | 0.13 | 2.24 | 2.24 | 91 | 1017.6 |
| 20260901211508 | 16 | 100 | 0.0 | 0.0 | 0.13 | 2.24 | 2.24 | 91 | 1017.6 |
| 20260901210017 | 16 | 101 | 0.0 | 0.0 | 0.13 | 2.24 | 2.24 | 91 | 1017.5 |
| 20260901204508 | 16 | 101 | 0.0 | 0.0 | 0.10 | 2.18 | 2.18 | 91 | 1017.5 |
| 20260901203008 | 16 | 101 | 0.0 | 0.0 | 0.03 | 2.11 | 2.11 | 91 | 1017.5 |
| 20260901201506 | 16 | 101 | 0.0 | 0.0 | 0.05 | 2.11 | 2.11 | 91 | 1017.4 |
| 20260901200003 | 16 | 83 | 0.0 | 6.4 | 0.13 | 2.11 | 2.11 | 91 | 1017.3 |
| 20260901194502 | 16 | 78 | 0.0 | 6.4 | 0.13 | 2.08 | 2.08 | 91 | 1017.3 |
| 20260901193000 | 16 | 143 | 0.0 | 0.0 | 0.15 | 2.08 | 2.08 | 91 | 1017.2 |
| 20260901191615 | 16 | 145 | 0.0 | 1.6 | 0.13 | 2.06 | 2.06 | 91 | 1017.3 |
| 20260901191500 | 16 | 145 | 0.0 | 1.6 | 0.10 | 2.03 | 2.03 | 91 | 1017.3 |
| 20260901190034 | 16 | 148 | 0.0 | 0.0 | 0.05 | 1.98 | 1.98 | 91 | 1017.1 |
| 20260901184539 | 16 | 59 | 0.0 | 1.6 | 0.03 | 1.96 | 1.96 | 91 | 1017.1 |
| 20260901183026 | 16 | 38 | 0.0 | 6.4 | 0.03 | 1.93 | 1.93 | 91 | 1017.1 |
| 20260901181525 | 16 | 89 | 0.0 | 4.8 | 0.18 | 1.93 | 1.93 | 91 | 1017.2 |
| 20260901180023 | 16 | 89 | 0.0 | 0.0 | 0.38 | 1.93 | 1.93 | 91 | 1016.9 |
| 20260901174523 | 16 | 93 | 0.0 | 6.4 | 0.41 | 1.93 | 1.93 | 91 | 1016.8 |
| 20260901173053 | 16 | 124 | 0.0 | 9.7 | 0.41 | 1.91 | 1.91 | 91 | 1016.3 |
| 20260901171559 | 16 | 94 | 0.0 | 6.4 | 0.25 | 1.75 | 1.75 | 91 | 1016.7 |
| 20260901164540 | 17 | 77 | 0.0 | 12.9 | 0.05 | 1.52 | 1.52 | 91 | 1016.4 |
| 20260901163038 | 17 | 80 | 0.0 | 11.3 | 0.05 | 1.50 | 1.50 | 91 | 1016.4 |
| 20260901161539 | 17 | 95 | 0.0 | 9.7 | 0.10 | 1.50 | 1.50 | 91 | 1016.3 |
| 20260901160106 | 18 | 88 | 0.0 | 6.4 | 0.15 | 1.50 | 1.50 | 91 | 1016.5 |
| 20260901154512 | 18 | 74 | 0.0 | 9.7 | 0.18 | 1.45 | 1.45 | 91 | 1016.5 |
| 20260901153103 | 18 | 37 | 0.0 | 14.5 | 0.20 | 1.42 | 1.42 | 91 | 1016.6 |
| 20260901151535 | 18 | 101 | 0.0 | 6.4 | 0.28 | 1.40 | 1.40 | 91 | 1016.8 |
| 20260901150030 | 18 | 117 | 0.0 | 0.0 | 0.28 | 1.32 | 1.32 | 91 | 1016.8 |
| 20260901144529 | 18 | 119 | 0.0 | 4.8 | 0.38 | 1.30 | 1.30 | 91 | 1016.9 |
| 20260901143029 | 18 | 123 | 0.0 | 4.8 | 0.51 | 1.24 | 1.24 | 92 | 1016.9 |
| 20260901141537 | 18 | 128 | 0.0 | 0.0 | 0.64 | 1.12 | 1.12 | 91 | 1017.0 |
| 20260901140100 | 18 | 132 | 0.0 | 0.0 | 0.69 | 1.04 | 1.04 | 91 | 1017.0 |
| 20260901134613 | 18 | 132 | 0.0 | 0.0 | 0.61 | 0.91 | 0.91 | 91 | 1017.2 |
| 20260901133054 | 18 | 132 | 0.0 | 0.0 | 0.46 | 0.71 | 0.71 | 91 | 1017.1 |
| 20260901131559 | 18 | 132 | 0.0 | 3.2 | 0.28 | 0.48 | 0.48 | 91 | 1017.7 |
| 20260901130052 | 18 | 132 | 0.0 | 0.0 | 0.28 | 0.36 | 0.36 | 91 | 1016.9 |
| 20260901124550 | 18 | 132 | 0.0 | 0.0 | 0.25 | 0.28 | 0.28 | 91 | 1016.9 |
| 20260901123049 | 18 | 132 | 0.0 | 0.0 | 0.25 | 0.28 | 0.28 | 91 | 1016.8 |
| 20260901121548 | 18 | 132 | 0.0 | 1.6 | 0.18 | 0.20 | 0.20 | 91 | 1017.0 |
| 20260901120047 | 18 | 132 | 0.0 | 0.0 | 0.05 | 0.08 | 0.08 | 91 | 1017.1 |
| 20260901114546 | 18 | 132 | 0.0 | 0.0 | 0.03 | 0.03 | 0.03 | 90 | 1017.1 |
| 20260901113045 | 18 | 132 | 0.0 | 0.0 | 0.03 | 0.03 | 0.03 | 91 | 1017.0 |
| 20260901111542 | 18 | 132 | 0.0 | 0.0 | 0.03 | 0.05 | 0.03 | 90 | 1016.9 |
| 20260901110041 | 18 | 132 | 0.0 | 0.0 | 0.03 | 0.05 | 0.03 | 90 | 1016.7 |
| 20260901104540 | 18 | 132 | 0.0 | 0.0 | 0.00 | 0.03 | 0.00 | 90 | 1016.7 |
| 20260901103047 | 18 | 132 | 0.0 | 0.0 | 0.00 | 0.03 | 0.00 | 90 | 1016.7 |
| 20260901101537 | 18 | 132 | 0.0 | 0.0 | 0.00 | 0.03 | 0.00 | 90 | 1016.5 |
| 20260901100036 | 18 | 132 | 0.0 | 0.0 | 0.00 | 0.03 | 0.00 | 90 | 1016.5 |
| 20260901093035 | 18 | 132 | 0.0 | 0.0 | 0.00 | 0.03 | 0.00 | 89 | 1016.7 |
| 20260901091532 | 18 | 132 | 0.0 | 0.0 | 0.00 | 0.03 | 0.00 | 89 | 1016.8 |
| 20260901090031 | 18 | 132 | 0.0 | 0.0 | 0.00 | 0.03 | 0.00 | 89 | 1016.7 |
| 20260901084531 | 18 | 132 | 0.0 | 0.0 | 0.00 | 0.03 | 0.00 | 89 | 1016.6 |
| 20260901083030 | 18 | 132 | 0.0 | 0.0 | 0.00 | 0.03 | 0.00 | 89 | 1016.5 |
| 20260901081556 | 18 | 132 | 0.0 | 0.0 | 0.00 | 0.03 | 0.00 | 89 | 1016.9 |
| 20260901080054 | 18 | 132 | 0.0 | 0.0 | 0.00 | 0.03 | 0.00 | 88 | 1017.2 |
| 20260901074551 | 18 | 132 | 0.0 | 0.0 | 0.00 | 0.03 | 0.00 | 88 | 1017.4 |
| 20260901073050 | 18 | 132 | 0.0 | 0.0 | 0.00 | 0.03 | 0.00 | 87 | 1017.3 |
| 20260901071558 | 18 | 132 | 0.0 | 0.0 | 0.00 | 0.03 | 0.00 | 87 | 1017.4 |
| 20260901070047 | 18 | 132 | 0.0 | 0.0 | 0.00 | 0.03 | 0.00 | 87 | 1017.4 |
| 20260901064545 | 18 | 132 | 0.0 | 0.0 | 0.00 | 0.03 | 0.00 | 87 | 1017.4 |
| 20260901063043 | 18 | 132 | 0.0 | 0.0 | 0.00 | 0.03 | 0.00 | 86 | 1017.4 |
| 20260901061541 | 18 | 132 | 0.0 | 0.0 | 0.00 | 0.03 | 0.00 | 86 | 1017.6 |
| 20260901060041 | 18 | 132 | 0.0 | 0.0 | 0.00 | 0.03 | 0.00 | 86 | 1017.9 |
| 20260901054538 | 18 | 132 | 0.0 | 0.0 | 0.00 | 0.03 | 0.00 | 86 | 1017.7 |
| 20260901053043 | 18 | 132 | 0.0 | 0.0 | 0.00 | 0.03 | 0.00 | 85 | 1017.7 |
| 20260901051535 | 18 | 132 | 0.0 | 0.0 | 0.00 | 0.03 | 0.00 | 85 | 1017.9 |
| 20260901050035 | 18 | 132 | 0.0 | 0.0 | 0.00 | 0.03 | 0.00 | 85 | 1018.0 |
| 20260901044506 | 18 | 132 | 0.0 | 0.0 | 0.00 | 0.03 | 0.00 | 85 | 1018.1 |
| 20260901043031 | 18 | 132 | 0.0 | 0.0 | 0.00 | 0.03 | 0.00 | 84 | 1018.2 |
| 20260901041530 | 18 | 132 | 0.0 | 0.0 | 0.00 | 0.03 | 0.00 | 84 | 1018.1 |
| 20260901040029 | 18 | 132 | 0.0 | 0.0 | 0.00 | 0.03 | 0.00 | 84 | 1018.2 |
| 20260901034532 | 18 | 132 | 0.0 | 0.0 | 0.00 | 0.03 | 0.00 | 84 | 1018.2 |
| 20260901031525 | 18 | 132 | 0.0 | 0.0 | 0.00 | 0.03 | 0.00 | 83 | 1018.4 |
| 20260901030027 | 18 | 132 | 0.0 | 0.0 | 0.00 | 0.03 | 0.00 | 82 | 1018.3 |
| 20260901024505 | 18 | 132 | 0.0 | 0.0 | 0.00 | 0.03 | 0.00 | 81 | 1018.2 |
| 20260901023043 | 18 | 132 | 0.0 | 0.0 | 0.00 | 0.03 | 0.00 | 80 | 1018.2 |
| 20260901021538 | 18 | 132 | 0.0 | 0.0 | 0.00 | 0.25 | 0.00 | 79 | 1018.2 |
| 20260901020036 | 19 | 132 | 0.0 | 0.0 | 0.00 | 0.25 | 0.00 | 78 | 1018.2 |